Other Public Products
Issued by NWS Grand Forks, ND

Home | Current Version | Previous Version | Graphics & Text | Print | Product List | Glossary On
Versions: 1 2 3 4 5 6 7 8 9 10 11 12 13 14 15 16 17 18 19 20 21 22 23 24 25 26 27 28 29 30 31 32 33 34 35 36 37 38 39 40 41 42 43 44 45 46 47 48 49 50
000
FPUS83 KFGF 262231
OPUFGF
PRAIRIE TO PINES WEATHER ROUNDUP
NATIONAL WEATHER SERVICE EASTERN NORTH DAKOTA/GRAND FORKS ND
500 PM CDT WED APR 26 2017

 **SATELLITE DATA USED TO AUGMENT SKY COVER AT AUTOMATED STATIONS**
 *****  WEATHER ACROSS EASTERN NORTH DAKOTA  *****

CITY           SKY/WX    TMP DP  RH WIND       PRES   REMARKS
GRAND FORKS    SNOW      31  29  92 N16       29.78F VSB 1/2 WCI  20
GRAND FORKS AF LGT SNOW  32  28  86 NE15      29.79S FOG     WCI  22
GRAND CITY NWS NOT AVBL
BUXTON           N/A     29  29  99 N12         N/A  WCI  20
DEVILS LAKE    CLOUDY    36  27  69 NE18      29.79S
FARGO          LGT SNOW  30  28  92 N17       29.72F VSB 3/4 WCI  18
WAHPETON ARPT  CLOUDY    30  27  86 N22       29.69F WCI  17
$$

 *****  WEATHER ACROSS CENTRAL AND WESTERN NORTH DAKOTA  *****

CITY           SKY/WX    TMP DP  RH WIND       PRES   REMARKS
JAMESTOWN      CLOUDY    31  25  78 N15       29.76S WCI  20
BISMARCK       PTSUNNY   46  28  49 N13G22    29.76F
MINOT          FAIR      50  23  34 NE16G23   29.78F
MINOT AFB      FAIR      48  22  35 NE17      29.78F
GARRISON         N/A     48  24  39 N9G20     29.76F
WILLISTON      FAIR      52  22  30 NE10      29.79F
DICKINSON      FAIR      47  22  37 NE10      29.73F
HETTINGER      FAIR      48  24  39 N13       29.74F
$$

 *****  OTHER OBSERVATIONS NORTHEAST NORTH DAKOTA  *****

CITY           SKY/WX    TMP DP  RH WIND       PRES   REMARKS
WALHALLA       NOT AVBL
LANGDON        CLOUDY    39  27  60 NE24G32   29.78S
CAVALIER       CLOUDY    37  27  65 NE15G22   29.80F
GRAFTON        LGT SNOW  32  30  93 NE9       29.82S WCI  24
CANDO          NOT AVBL
FORT TOTTEN      N/A     35  27  72 NE8       29.95S
ROLLA          FAIR      43  28  56 NE21      29.79S
RUGBY          NOT AVBL
 ***** THE ABOVE OBSERVATIONS ARE NON NWS ARE NOT QUALITY
        CONTROLLED AND MAY MIS-REPORT RAIN FOR SNOW...
$$

 *****  OTHER OBSERVATIONS SOUTHEAST NORTH DAKOTA *****

CITY           SKY/WX    TMP DP  RH WIND       PRES   REMARKS
COOPERSTOWN    LGT SNOW  28  28 100 N15G22    29.77S WCI  17
VALLEY CITY    LGT SNOW  28  28 100 NE16G23   29.76F WCI  17
OAKES          NOT AVBL
GWINNER        CLOUDY    30  27  86 MISG      29.73F FOG
SHEYENNE NWR     N/A     28  24  86 N12       29.95S WCI  18
BUFFALO          N/A     28  25  89 SE13        N/A  WCI  17
WYNDMERE         N/A     30  28  93 N18         N/A  WCI  18
 ***** THE ABOVE OBSERVATIONS ARE NON NWS ARE NOT QUALITY
       CONTROLLED AND MAY MIS-REPORT RAIN FOR SNOW...
$$

  *****  WEATHER ACROSS NORTHERN MINNESOTA  *****

CITY           SKY/WX    TMP DP  RH WIND       PRES   REMARKS
FLAG ISLAND    CLOUDY    32  21  64 NE18G24   29.80R WCI  20
WARROAD        CLOUDY    32  25  74 NE18G29   29.78F WCI  20
ROSEAU         FLURRIES  32  25  74 NE20      29.78S WCI  20
HALLOCK        LGT SNOW  36  27  69 NE12G17   29.80S
THF RVR FALLS  LGT SNOW  28  25  86 N14       29.75S FOG     WCI  17
HALSTAD          N/A     29  27  89 N16         N/A  WCI  18
FOSSTON        LGT SNOW  28  25  86 N17       29.70S WCI  16
BAUDETTE       CLOUDY    29  23  78 NE13      29.75R WCI  19
WASKISH        CLOUDY    28  25  86 NE12G20   29.70S WCI  18
CROOKSTON      LGT SNOW  30  27  86 NE15G23   29.76F WCI  19
$$
  *****  WEATHER ACROSS CENTRAL AND WEST MINNESOTA  *****

CITY           SKY/WX    TMP DP  RH WIND       PRES   REMARKS
BEMIDJI        LGT SNOW  27  24  89 N13G20    29.67S WCI  17
PARK RAPIDS    LGT SNOW  30  24  78 N12       29.63F WCI  20
WADENA         MIX PCPN  28  27  93 NE7       29.62F WCI  21
DETROIT LAKES  LGT SNOW  30  28  93 N8        29.66F WCI  23
MOORHEAD       RAIN      28  27  93 N9        29.72F WCI  20
FERGUS FALLS   CLOUDY    30  27  86 N14G21    29.66F WCI  20
ELBOW LAKE     CLOUDY    32  29  90 NW14      29.65S WCI  22
MORRIS MN      CLOUDY    32  28  86 NW16G23   29.64R WCI  21
STAPLES        LGT SNOW  28  27  93 N7        29.62F WCI  21
WHEATON        CLOUDY    30  27  86 N16G23    29.70S WCI  19
$$
  *****  WEATHER ELSEWHERE ACROSS MINNESOTA  *****

CITY           SKY/WX    TMP DP  RH WIND       PRES   REMARKS
DULUTH         LGT SNOW  33  30  88 N9        29.57R VSB 1
INTRNTL FALLS  SNOW      28  22  78 NE13G20   29.71S VSB 1/2 WCI  17
ELY            LGT SNOW  27  21  80 N7        29.62R WCI  19
CLOQUET        LGT SNOW  32  30  93 N14       29.58S WCI  22
BRAINERD       CLOUDY    30  27  88 N12       29.61F WCI  20
HIBBING        CLOUDY    29  25  85 N10       29.61S WCI  20
ALEXANDRIA     CLOUDY    32  27  81 N14       29.63R WCI  22
SAINT CLOUD    CLOUDY    35  31  85 N16G22    29.58F
MINNEAPOLIS    CLOUDY    41  32  70 N12G20    29.55S
$$

  *****  WEATHER ACROSS SOUTH DAKOTA  *****

CITY           SKY/WX    TMP DP  RH WIND       PRES   REMARKS
SIOUX FALLS    CLOUDY    37  30  75 N18       29.67S
BROOKINGS      CLOUDY    30  27  86 N16       29.66S WCI  19
WATERTOWN      CLOUDY    30  25  81 N18       29.66S WCI  18
HURON          CLOUDY    35  28  75 N18       29.73F WCI  24
SISSETON         N/A     30  27  88 N21       29.68F WCI  17
ABERDEEN       FLURRIES  31  26  82 N17       29.75S WCI  19
MITCHELL       CLOUDY    38  28  67 NW16      29.72F
PIERRE         FAIR      48  27  44 N12G21    29.72F
MOBRIDGE       PTSUNNY   48  26  42 N14G22    29.72F
RAPID CITY     CLOUDY    38  28  67 N9        29.75F
$$

  *****  SOME WEATHER IN NEARBY STATES *****

CITY           SKY/WX    TMP DP  RH WIND       PRES   REMARKS
GLASGOW MT     FAIR      49  26  41 S10G23    29.73F
GREAT FALLS MT LGT RAIN  52  37  56 W6        29.60F
CHEYENNE WY    CLOUDY    48  28  46 NW21G33   29.72R
SCOTTSBLUFF NE FAIR      60  31  33 MISG      29.65F
OMAHA NE       CLOUDY    43  33  68 NW18      29.65F
DES MOINES IA  CLOUDY    48  39  71 NW15      29.57F
DAVENPORT IA   CLOUDY    50  46  86 W12       29.53F
CHICAGO IL     CLOUDY    72  56  57 SW12      29.48R
EAU CLAIRE WI  CLOUDY    41  36  82 NW7       29.49R
LA CROSSE WI   CLOUDY    47  42  83 W10       29.49R
$$

  *****  SOME NATIONAL WEATHER *****

CITY           SKY/WX    TMP DP  RH WIND       PRES   REMARKS
LA GUARDIA NY  CLOUDY    59  56  89 NE5       29.77R FOG
RALEIGH NC     FAIR      79  62  56 W7        29.80R
ATLANTA GA     FAIR      80  57  45 S13       29.77S
NEW ORLEANS LA PTSUNNY   79  72  79 SE17G25   29.65S
OKLAHOMA CITY  CLOUDY    54  40  59 NW18      29.68S
ALBUQUERQUE NM PTSUNNY   67  15  13 NW15G25   29.82F
SALT LAKE CITY CLOUDY    57  34  41 CALM      29.76F
LOS ANGELES CA PTSUNNY   68  53  58 W14       29.86F
BOISE ID       CLOUDY    49  42  77 NE6       29.77F
SEATTLE WA     PTSUNNY   56  41  57 S15       29.84S
$$

*** WEATHER ACROSS MANITOBA...SASKATCHEWAN AND ONTARIO ***
                ***ONTARIO***

CITY           SKY/WX    TMP DP  RH WIND       PRES   REMARKS
GERALDTON      SLEET     16  14  93 NE17G26   29.76S VSB 1/4 WCI   0
THUNDER BAY    LGTSLEET  23  19  86 NE7G17    29.63S WCI  15
SIOUX LOOKOUT  LGT SNOW  21  18  86 VRB8G21   29.83S VSB 3/4 WCI  12
TORONTO        MOSUNNY   61  52  72 E9        29.68F
BIG TROUT LK   SUNNY     30   5  34 E10G20    30.15F WCI  21
PICKLE LAKE    CLOUDY    23   3  42 NE13G33   29.96F WCI  11
DRYDEN         LGT SNOW  25  21  86 NE21G30   29.78S VSB 3/4 WCI  10
KENORA         CLOUDY    30  19  64 NE16G23   29.81R WCI  19
$$
                *** MANITOBA***

CITY           SKY/WX    TMP DP  RH WIND       PRES   REMARKS
BRANDON        PTSUNNY   45  23  42 NE22G29   29.85F
DAUPHIN        SUNNY     43  18  36 NE16      29.94F
ISLAND LAKE    MOSUNNY   39   7  26 E6        30.09F
PILOT MOUND      N/A     41  25  52 NE22G29     N/A
THE PAS        MOSUNNY   39   9  28 E10       30.02F
THOMPSON       SUNNY     37   0  20 CALM      30.10F
WINNIPEG       CLOUDY    41  23  48 NE21G30   29.84S
LYNN LAKE      SUNNY     37   5  25 S6        30.04F
CHURCHILL      SUNNY     32  16  51 SW14      30.14F WCI  22
GILLAM         SUNNY     36   1  23 VRB8      30.17F
$$
                ***SASKATCHEWAN***

CITY           SKY/WX    TMP DP  RH WIND       PRES   REMARKS
ESTEVAN        MOSUNNY   46  18  31 NE10G18   29.82F
KINDERSLEY     LGT RAIN  37  36  93 SE17G24   29.73F
LLOYDMINSTER   FLURRIES  34  32  93 SE16      29.78F WCI  23
PRINCE ALBERT  CLOUDY    41  16  36 SE15      29.92F
REGINA         MOSUNNY   46  19  34 E9G22     29.83F
YORKTON        SUNNY     46  12  25 NE8       29.88F



USA.gov is the U.S. government's official web portal to all federal, state and local government web resources and services.